Time,TemperatureF,DewpointF,PressureIn,WindDirection,WindDirectionDegrees,WindSpeedMPH,WindSpeedGustMPH,Humidity,HourlyPrecipIn,Conditions,Clouds,dailyrainin,SolarRadiationWatts/m^2,SoftwareType,DateUTC
2013-06-26 00:01:00,78.0,12.0,-100.00,WNW,283,7.0,15.0,8,0.00,,,-99.99,0.000000,,2013-06-26 06:01:00,
2013-06-26 00:22:00,78.0,12.0,-100.00,WNW,283,7.0,15.0,8,0.00,,,-99.99,0.000000,,2013-06-26 06:22:00,
2013-06-26 00:34:00,78.0,12.0,-100.00,WNW,283,7.0,15.0,8,0.00,,,-99.99,0.000000,,2013-06-26 06:34:00,
2013-06-26 00:44:00,78.0,12.0,-100.00,WNW,283,7.0,15.0,8,0.00,,,-99.99,0.000000,,2013-06-26 06:44:00,
2013-06-26 00:53:00,78.0,12.0,-100.00,WNW,283,7.0,15.0,8,0.00,,,-99.99,0.000000,,2013-06-26 06:53:00,
2013-06-26 01:01:00,77.0,11.0,-100.00,West,271,8.0,13.0,8,0.00,,,0.00,0.000000,,2013-06-26 07:01:00,
2013-06-26 01:22:00,77.0,11.0,-100.00,West,271,8.0,13.0,8,0.00,,,0.00,0.000000,,2013-06-26 07:22:00,
2013-06-26 01:33:00,77.0,11.0,-100.00,West,271,8.0,13.0,8,0.00,,,0.00,0.000000,,2013-06-26 07:33:00,
2013-06-26 01:43:00,77.0,11.0,-100.00,West,271,8.0,13.0,8,0.00,,,0.00,0.000000,,2013-06-26 07:43:00,
2013-06-26 01:53:00,77.0,11.0,-100.00,West,271,8.0,13.0,8,0.00,,,0.00,0.000000,,2013-06-26 07:53:00,
2013-06-26 02:01:00,75.0,10.0,-100.00,WNW,296,6.0,13.0,8,0.00,,,0.00,0.000000,,2013-06-26 08:01:00,
2013-06-26 02:22:00,75.0,10.0,-100.00,WNW,296,6.0,13.0,8,0.00,,,0.00,0.000000,,2013-06-26 08:22:00,
2013-06-26 02:34:00,75.0,10.0,-100.00,WNW,296,6.0,13.0,8,0.00,,,0.00,0.000000,,2013-06-26 08:34:00,
2013-06-26 02:43:00,75.0,10.0,-100.00,WNW,296,6.0,13.0,8,0.00,,,0.00,0.000000,,2013-06-26 08:43:00,
2013-06-26 02:53:00,75.0,10.0,-100.00,WNW,296,6.0,13.0,8,0.00,,,0.00,0.000000,,2013-06-26 08:53:00,
2013-06-26 03:01:00,73.0,11.0,-100.00,West,276,7.0,10.0,9,0.00,,,0.00,0.000000,,2013-06-26 09:01:00,
2013-06-26 03:23:00,73.0,11.0,-100.00,West,276,7.0,10.0,9,0.00,,,0.00,0.000000,,2013-06-26 09:23:00,
2013-06-26 03:33:00,73.0,11.0,-100.00,West,276,7.0,10.0,9,0.00,,,0.00,0.000000,,2013-06-26 09:33:00,
2013-06-26 03:43:00,73.0,11.0,-100.00,West,276,7.0,10.0,9,0.00,,,0.00,0.000000,,2013-06-26 09:43:00,
2013-06-26 03:53:00,73.0,11.0,-100.00,West,276,7.0,10.0,9,0.00,,,0.00,0.000000,,2013-06-26 09:53:00,
2013-06-26 04:01:00,72.0,10.0,-100.00,WSW,256,7.0,13.0,9,0.00,,,0.00,0.000000,,2013-06-26 10:01:00,
2013-06-26 04:22:00,72.0,10.0,-100.00,WSW,256,7.0,13.0,9,0.00,,,0.00,0.000000,,2013-06-26 10:22:00,
2013-06-26 04:34:00,72.0,10.0,-100.00,WSW,256,7.0,13.0,9,0.00,,,0.00,0.000000,,2013-06-26 10:34:00,
2013-06-26 04:43:00,72.0,10.0,-100.00,WSW,256,7.0,13.0,9,0.00,,,0.00,0.000000,,2013-06-26 10:43:00,
2013-06-26 04:53:00,72.0,10.0,-100.00,WSW,256,7.0,13.0,9,0.00,,,0.00,0.000000,,2013-06-26 10:53:00,
2013-06-26 05:01:00,68.0,9.0,-100.00,NNW,346,5.0,10.0,10,0.00,,,0.00,0.000000,,2013-06-26 11:01:00,
2013-06-26 05:23:00,68.0,9.0,-100.00,NNW,346,5.0,10.0,10,0.00,,,0.00,0.000000,,2013-06-26 11:23:00,
2013-06-26 05:33:00,68.0,9.0,-100.00,NNW,346,5.0,10.0,10,0.00,,,0.00,0.000000,,2013-06-26 11:33:00,
2013-06-26 05:44:00,68.0,9.0,-100.00,NNW,346,5.0,10.0,10,0.00,,,0.00,0.000000,,2013-06-26 11:44:00,
2013-06-26 05:52:00,68.0,9.0,-100.00,NNW,346,5.0,10.0,10,0.00,,,0.00,0.000000,,2013-06-26 11:52:00,
2013-06-26 06:01:00,69.0,10.0,-100.00,North,2,5.0,7.0,10,0.00,,,0.00,1.000000,,2013-06-26 12:01:00,
2013-06-26 06:22:00,69.0,10.0,-100.00,North,2,5.0,7.0,10,0.00,,,0.00,1.000000,,2013-06-26 12:22:00,
2013-06-26 06:34:00,69.0,10.0,-100.00,North,2,5.0,7.0,10,0.00,,,0.00,1.000000,,2013-06-26 12:34:00,
2013-06-26 06:43:00,69.0,10.0,-100.00,North,2,5.0,7.0,10,0.00,,,0.00,1.000000,,2013-06-26 12:43:00,
2013-06-26 06:52:00,69.0,10.0,-100.00,North,2,5.0,7.0,10,0.00,,,0.00,1.000000,,2013-06-26 12:52:00,
2013-06-26 07:01:00,71.0,9.0,-100.00,NNW,347,5.0,7.0,9,0.00,,,0.00,20.000000,,2013-06-26 13:01:00,
2013-06-26 07:34:00,71.0,9.0,-100.00,NNW,347,5.0,7.0,9,0.00,,,0.00,20.000000,,2013-06-26 13:34:00,
2013-06-26 07:43:00,71.0,9.0,-100.00,NNW,347,5.0,7.0,9,0.00,,,0.00,20.000000,,2013-06-26 13:43:00,
2013-06-26 07:53:00,71.0,9.0,-100.00,NNW,347,5.0,7.0,9,0.00,,,0.00,20.000000,,2013-06-26 13:53:00,
2013-06-26 08:01:00,81.0,11.0,-100.00,NNW,334,7.0,12.0,7,0.00,,,0.00,249.000000,,2013-06-26 14:01:00,
2013-06-26 08:24:00,81.0,11.0,-100.00,NNW,334,7.0,12.0,7,0.00,,,0.00,249.000000,,2013-06-26 14:24:00,
2013-06-26 08:34:00,81.0,11.0,-100.00,NNW,334,7.0,12.0,7,0.00,,,0.00,249.000000,,2013-06-26 14:34:00,
2013-06-26 08:42:00,81.0,11.0,-100.00,NNW,334,7.0,12.0,7,0.00,,,0.00,249.000000,,2013-06-26 14:42:00,
2013-06-26 08:53:00,81.0,11.0,-100.00,NNW,334,7.0,12.0,7,0.00,,,0.00,249.000000,,2013-06-26 14:53:00,
2013-06-26 09:01:00,83.0,9.0,-100.00,NW,323,11.0,18.0,6,0.00,,,0.00,472.000000,,2013-06-26 15:01:00,
2013-06-26 09:34:00,83.0,9.0,-100.00,NW,323,11.0,18.0,6,0.00,,,0.00,472.000000,,2013-06-26 15:34:00,
2013-06-26 09:44:00,83.0,9.0,-100.00,NW,323,11.0,18.0,6,0.00,,,0.00,472.000000,,2013-06-26 15:44:00,
2013-06-26 09:53:00,83.0,9.0,-100.00,NW,323,11.0,18.0,6,0.00,,,0.00,472.000000,,2013-06-26 15:53:00,
2013-06-26 10:01:00,86.0,11.0,-100.00,WNW,303,8.0,15.0,6,0.00,,,0.00,683.000000,,2013-06-26 16:01:00,
2013-06-26 10:22:00,86.0,11.0,-100.00,WNW,303,8.0,15.0,6,0.00,,,0.00,683.000000,,2013-06-26 16:22:00,
2013-06-26 10:34:00,86.0,11.0,-100.00,WNW,303,8.0,15.0,6,0.00,,,0.00,683.000000,,2013-06-26 16:34:00,
2013-06-26 10:43:00,86.0,11.0,-100.00,WNW,303,8.0,15.0,6,0.00,,,0.00,683.000000,,2013-06-26 16:43:00,
2013-06-26 10:52:00,86.0,11.0,-100.00,WNW,303,8.0,15.0,6,0.00,,,0.00,683.000000,,2013-06-26 16:52:00,
2013-06-26 11:01:00,86.0,11.0,-100.00,NW,305,8.0,14.0,6,0.00,,,0.00,863.000000,,2013-06-26 17:01:00,
2013-06-26 11:24:00,86.0,11.0,-100.00,NW,305,8.0,14.0,6,0.00,,,0.00,863.000000,,2013-06-26 17:24:00,
2013-06-26 11:33:00,86.0,11.0,-100.00,NW,305,8.0,14.0,6,0.00,,,0.00,863.000000,,2013-06-26 17:33:00,
2013-06-26 11:43:00,86.0,11.0,-100.00,NW,305,8.0,14.0,6,0.00,,,0.00,863.000000,,2013-06-26 17:43:00,
2013-06-26 11:52:00,86.0,11.0,-100.00,NW,305,8.0,14.0,6,0.00,,,0.00,863.000000,,2013-06-26 17:52:00,
2013-06-26 12:01:00,90.0,14.0,-100.00,WSW,246,7.0,15.0,6,0.00,,,0.00,987.000000,,2013-06-26 18:01:00,
2013-06-26 12:22:00,90.0,14.0,-100.00,WSW,246,7.0,15.0,6,0.00,,,0.00,987.000000,,2013-06-26 18:22:00,
2013-06-26 12:34:00,90.0,14.0,-100.00,WSW,246,7.0,15.0,6,0.00,,,0.00,987.000000,,2013-06-26 18:34:00,
2013-06-26 12:43:00,90.0,14.0,-100.00,WSW,246,7.0,15.0,6,0.00,,,0.00,987.000000,,2013-06-26 18:43:00,
2013-06-26 12:52:00,90.0,14.0,-100.00,WSW,246,7.0,15.0,6,0.00,,,0.00,987.000000,,2013-06-26 18:52:00,
2013-06-26 13:01:00,93.0,12.0,-100.00,WNW,286,7.0,20.0,5,0.00,,,0.00,1050.000000,,2013-06-26 19:01:00,
2013-06-26 13:22:00,93.0,12.0,-100.00,WNW,286,7.0,20.0,5,0.00,,,0.00,1050.000000,,2013-06-26 19:22:00,
2013-06-26 13:33:00,93.0,12.0,-100.00,WNW,286,7.0,20.0,5,0.00,,,0.00,1050.000000,,2013-06-26 19:33:00,
2013-06-26 13:43:00,93.0,12.0,-100.00,WNW,286,7.0,20.0,5,0.00,,,0.00,1050.000000,,2013-06-26 19:43:00,
2013-06-26 13:52:00,93.0,12.0,-100.00,WNW,286,7.0,20.0,5,0.00,,,0.00,1050.000000,,2013-06-26 19:52:00,
2013-06-26 14:01:00,94.0,13.0,-100.00,WSW,247,10.0,20.0,5,0.00,,,0.00,1054.000000,,2013-06-26 20:01:00,
2013-06-26 14:22:00,94.0,13.0,-100.00,WSW,247,10.0,20.0,5,0.00,,,0.00,1054.000000,,2013-06-26 20:22:00,
2013-06-26 14:34:00,94.0,13.0,-100.00,WSW,247,10.0,20.0,5,0.00,,,0.00,1054.000000,,2013-06-26 20:34:00,
2013-06-26 14:43:00,94.0,13.0,-100.00,WSW,247,10.0,20.0,5,0.00,,,0.00,1054.000000,,2013-06-26 20:43:00,
2013-06-26 14:52:00,94.0,13.0,-100.00,WSW,247,10.0,20.0,5,0.00,,,0.00,1054.000000,,2013-06-26 20:52:00,
2013-06-26 15:01:00,94.0,13.0,-100.00,West,265,9.0,23.0,5,0.00,,,0.00,1005.000000,,2013-06-26 21:01:00,
2013-06-26 15:23:00,94.0,13.0,-100.00,West,265,9.0,23.0,5,0.00,,,0.00,1005.000000,,2013-06-26 21:23:00,
2013-06-26 15:33:00,94.0,13.0,-100.00,West,265,9.0,23.0,5,0.00,,,0.00,1005.000000,,2013-06-26 21:33:00,
2013-06-26 15:43:00,94.0,13.0,-100.00,West,265,9.0,23.0,5,0.00,,,0.00,1005.000000,,2013-06-26 21:43:00,
2013-06-26 15:52:00,94.0,13.0,-100.00,West,265,9.0,23.0,5,0.00,,,0.00,1005.000000,,2013-06-26 21:52:00,
2013-06-26 16:01:00,95.0,14.0,-100.00,WNW,288,9.0,19.0,5,0.00,,,0.00,894.000000,,2013-06-26 22:01:00,
2013-06-26 16:22:00,95.0,14.0,-100.00,WNW,288,9.0,19.0,5,0.00,,,0.00,894.000000,,2013-06-26 22:22:00,
2013-06-26 16:34:00,95.0,14.0,-100.00,WNW,288,9.0,19.0,5,0.00,,,0.00,894.000000,,2013-06-26 22:34:00,
2013-06-26 16:43:00,95.0,14.0,-100.00,WNW,288,9.0,19.0,5,0.00,,,0.00,894.000000,,2013-06-26 22:43:00,
2013-06-26 16:52:00,95.0,14.0,-100.00,WNW,288,9.0,19.0,5,0.00,,,0.00,894.000000,,2013-06-26 22:52:00,
2013-06-26 17:01:00,95.0,9.0,-100.00,West,280,9.0,17.0,4,0.00,,,0.00,726.000000,,2013-06-26 23:01:00,
2013-06-26 17:22:00,95.0,9.0,-100.00,West,280,9.0,17.0,4,0.00,,,0.00,726.000000,,2013-06-26 23:22:00,
2013-06-26 17:34:00,95.0,9.0,-100.00,West,280,9.0,17.0,4,0.00,,,0.00,726.000000,,2013-06-26 23:34:00,
2013-06-26 17:43:00,95.0,9.0,-100.00,West,280,9.0,17.0,4,0.00,,,0.00,726.000000,,2013-06-26 23:43:00,
2013-06-26 17:53:00,95.0,9.0,-100.00,West,280,9.0,17.0,4,0.00,,,0.00,726.000000,,2013-06-26 23:53:00,
2013-06-26 18:01:00,94.0,8.0,-100.00,West,268,8.0,14.0,4,0.00,,,0.00,523.000000,,2013-06-27 00:01:00,
2013-06-26 18:22:00,94.0,8.0,-100.00,West,268,8.0,14.0,4,0.00,,,0.00,523.000000,,2013-06-27 00:22:00,
2013-06-26 18:34:00,94.0,8.0,-100.00,West,268,8.0,14.0,4,0.00,,,0.00,523.000000,,2013-06-27 00:34:00,
2013-06-26 18:43:00,94.0,8.0,-100.00,West,268,8.0,14.0,4,0.00,,,0.00,523.000000,,2013-06-27 00:43:00,
2013-06-26 18:53:00,94.0,8.0,-100.00,West,268,8.0,14.0,4,0.00,,,0.00,523.000000,,2013-06-27 00:53:00,
2013-06-26 19:01:00,92.0,6.0,-100.00,West,273,8.0,14.0,4,0.00,,,0.00,300.000000,,2013-06-27 01:01:00,
2013-06-26 19:22:00,92.0,6.0,-100.00,West,273,8.0,14.0,4,0.00,,,0.00,300.000000,,2013-06-27 01:22:00,
2013-06-26 19:32:00,92.0,6.0,-100.00,West,273,8.0,14.0,4,0.00,,,0.00,300.000000,,2013-06-27 01:32:00,
2013-06-26 19:43:00,92.0,6.0,-100.00,West,273,8.0,14.0,4,0.00,,,0.00,300.000000,,2013-06-27 01:43:00,
2013-06-26 19:53:00,92.0,6.0,-100.00,West,273,8.0,14.0,4,0.00,,,0.00,300.000000,,2013-06-27 01:53:00,
2013-06-26 20:01:00,87.0,3.0,-100.00,West,281,5.0,13.0,4,0.00,,,0.00,94.000000,,2013-06-27 02:01:00,
2013-06-26 20:22:00,87.0,3.0,-100.00,West,281,5.0,13.0,4,0.00,,,0.00,94.000000,,2013-06-27 02:22:00,
2013-06-26 20:32:00,87.0,3.0,-100.00,West,281,5.0,13.0,4,0.00,,,0.00,94.000000,,2013-06-27 02:32:00,
2013-06-26 20:42:00,87.0,3.0,-100.00,West,281,5.0,13.0,4,0.00,,,0.00,94.000000,,2013-06-27 02:42:00,
2013-06-26 20:52:00,87.0,3.0,-100.00,West,281,5.0,13.0,4,0.00,,,0.00,94.000000,,2013-06-27 02:52:00,
2013-06-26 21:01:00,80.0,3.0,-100.00,NW,314,4.0,8.0,5,0.00,,,0.00,3.000000,,2013-06-27 03:01:00,
2013-06-26 21:22:00,80.0,3.0,-100.00,NW,314,4.0,8.0,5,0.00,,,0.00,3.000000,,2013-06-27 03:22:00,
2013-06-26 21:33:00,80.0,3.0,-100.00,NW,314,4.0,8.0,5,0.00,,,0.00,3.000000,,2013-06-27 03:33:00,
2013-06-26 21:42:00,80.0,3.0,-100.00,NW,314,4.0,8.0,5,0.00,,,0.00,3.000000,,2013-06-27 03:42:00,
2013-06-26 21:52:00,80.0,3.0,-100.00,NW,314,4.0,8.0,5,0.00,,,0.00,3.000000,,2013-06-27 03:52:00,
2013-06-26 22:01:00,79.0,10.0,-100.00,SW,216,4.0,8.0,7,0.00,,,0.00,0.000000,,2013-06-27 04:01:00,
2013-06-26 22:22:00,79.0,10.0,-100.00,SW,216,4.0,8.0,7,0.00,,,0.00,0.000000,,2013-06-27 04:22:00,
2013-06-26 22:33:00,79.0,10.0,-100.00,SW,216,4.0,8.0,7,0.00,,,0.00,0.000000,,2013-06-27 04:33:00,
2013-06-26 22:42:00,79.0,10.0,-100.00,SW,216,4.0,8.0,7,0.00,,,0.00,0.000000,,2013-06-27 04:42:00,
2013-06-26 22:52:00,79.0,10.0,-100.00,SW,216,4.0,8.0,7,0.00,,,0.00,0.000000,,2013-06-27 04:52:00,
2013-06-26 23:01:00,80.0,10.0,-100.00,WSW,251,6.0,11.0,7,0.00,,,0.00,0.000000,,2013-06-27 05:01:00,
2013-06-26 23:22:00,80.0,10.0,-100.00,WSW,251,6.0,11.0,7,0.00,,,0.00,0.000000,,2013-06-27 05:22:00,
2013-06-26 23:32:00,80.0,10.0,-100.00,WSW,251,6.0,11.0,7,0.00,,,0.00,0.000000,,2013-06-27 05:32:00,
2013-06-26 23:42:00,80.0,10.0,-100.00,WSW,251,6.0,11.0,7,0.00,,,0.00,0.000000,,2013-06-27 05:42:00,
2013-06-26 23:53:00,80.0,10.0,-100.00,WSW,251,6.0,11.0,7,0.00,,,0.00,0.000000,,2013-06-27 05:53:00,